Location: Bussy-Saint-Georges
(48.8410°N, 2.7017°E)
Time: 16:21:50
(UTC+00:00)

Cosmos 1844 Rocket - Pass Details

Date: 18 October 2021
Orbit: 826 x 843 km, 71.0° (Epoch: 28 November)

Event Time Altitude Azimuth Distance (km) Brightness Sun altitude
Rises 19:02:29 0° 334° (NNW) 3,379 6.4 -21.9°
Reaches altitude 10° 19:05:01 10° 340° (NNW) 2,441 5.5 -22.3°
Maximum altitude 19:10:26 49° 55° (NE) 1,066 2.9 -23.2°
Enters shadow 19:10:40 48° 63° (ENE) 1,070 2.9 -23.2°
